This is the latest recevied weather packets stored in our database for station/object 9A3SWO. If no packets are shown the sender has not sent any weather packets the latest 10 day(s).
| Time | Temp. | Humidity | Pressure | Rain* | Wind** | Luminosity | Snow |
|---|---|---|---|---|---|---|---|
| 1787391476 | 25.56° C | 60% | 1016.9 hPa | - | - | - | - |
| 1787390877 | 25.56° C | 59% | 1016.9 hPa | - | - | - | - |
| 1787390277 | 25.56° C | 58% | 1016.9 hPa | - | - | - | - |
| 1787389676 | 25° C | 58% | 1016.8 hPa | - | - | - | - |
| 1787389077 | 25° C | 58% | 1016.7 hPa | - | - | - | - |
| 1787388477 | 24.44° C | 57% | 1016.5 hPa | - | - | - | - |
| 1787387876 | 24.44° C | 59% | 1016.5 hPa | - | - | - | - |
| 1787387277 | 24.44° C | 56% | 1016.3 hPa | - | - | - | - |
| 1787386676 | 25° C | 56% | 1016.3 hPa | - | - | - | - |
| 1787386076 | 26.11° C | 57% | 1016.1 hPa | - | - | - | - |
| 1787385477 | 26.11° C | 54% | 1015.9 hPa | - | - | - | - |
| 1787384876 | 25.56° C | 54% | 1015.8 hPa | - | - | - | - |
| 1787384276 | 25.56° C | 54% | 1015.9 hPa | - | - | - | - |
| 1787383676 | 25.56° C | 54% | 1015.9 hPa | - | - | - | - |
| 1787383076 | 25.56° C | 54% | 1015.8 hPa | - | - | - | - |
| 1787382476 | 26.11° C | 54% | 1015.6 hPa | - | - | - | - |
| 1787381876 | 26.11° C | 54% | 1015.6 hPa | - | - | - | - |
| 1787381277 | 26.11° C | 52% | 1015.4 hPa | - | - | - | - |
| 1787380676 | 26.67° C | 53% | 1015.2 hPa | - | - | - | - |
| 1787380077 | 26.11° C | 54% | 1015.3 hPa | - | - | - | - |
| 1787379476 | 26.11° C | 54% | 1015.2 hPa | - | - | - | - |
| 1787378876 | 26.11° C | 53% | 1015.1 hPa | - | - | - | - |
| 1787378276 | 26.67° C | 53% | 1015.1 hPa | - | - | - | - |
| 1787377676 | 27.22° C | 52% | 1014.9 hPa | - | - | - | - |
| 1787377076 | 26.67° C | 52% | 1014.8 hPa | - | - | - | - |
* Rain since midnight (hover to see other rain measurements)
** Current wind speed in m/s (hover to see current wind gust speed)